User: anonymous   Login
Location: Alpha Ridge Park
(39.3209°N, 76.9128°W)
Time: 03:00:40
(UTC-04:00)
Language:

A-11 Canister half - Orbit

View from above orbital plane
View from above orbital plane
View from above satellite
View from above satellite

Ground track
Ground track

The orbit data is extracted from the following two-line orbital elements,

1    51U 60009C   19143.28340579 -.00000120 +00000-0 -32987-3 0  9994
2    51 047.2106 117.5973 0104337 079.1503 282.1007 12.18270716616406
Epoch (UTC): 23 May 2019 06:48:06
Eccentricity: 0.0104337
inclination: 47.2106°
perigee height: 1517 km
apogee height: 1683 km
right ascension of ascending node: 117.5973°
argument of perigee: 79.1503°
revolutions per day: 12.18270716
mean anomaly at epoch: 282.1007°
orbit number at epoch: 61640

The dashed part of the orbit path shows where the satellite is in the earth's shadow,  

DLR